Weather History for Everett, WA

Change the Weather History Date:

Tuesday, March 12, 2013

  Actual Average Record
Temperature  
Mean Temperature 50 °F -  
Max Temperature 55 °F 52 °F 69 °F (1998)
Min Temperature 46 °F 37 °F 25 °F (1969)
Degree Days  
Heating Degree Days 15    
Moisture  
Dew Point 46 °F    
Average Humidity 84    
Maximum Humidity 94    
Minimum Humidity 71    
Precipitation  
Precipitation 0.12 in - - ()
Sea Level Pressure  
Sea Level Pressure 30.07 in    
Wind  
Wind Speed 19 mph (South)    
Max Wind Speed 30 mph    
Max Gust Speed 44 mph    
Visibility 10 miles    
Events Rain    
Averages and records for this station are not official NWS values.
T = Trace of Precipitation, MM = Missing Value Source: NWS Daily Summary

Daily Weather History Graph

Daily Weather History Graph

Search for Another Location

Airport:

Trip Planner

Search our weather history database for the weather conditions in past years. The results will help you decide how hot, cold, wet, or windy it might be!

Date:

Astronomy

Mar. 12, 2013 Rise Set
Actual Time 7:27 AM PDT 7:10 PM PDT
Civil Twilight 6:56 AM PDT 7:41 PM PDT
Nautical Twilight 6:20 AM PDT 8:17 PM PDT
Astronomical Twilight 5:44 AM PDT 8:54 PM PDT
Moon 7:29 AM PDT (3/12) 8:41 PM PDT (3/12)
Length of Visible Light 12h 44m
Length of Day
11h 43m
New Moon, 1% of the Moon is Illuminated
Mar 12
New Moon
Mar 19
First Quarter
Mar 27
Full
Apr 2
Last Quarter
Apr 10
New

Hourly Weather History & Observations

Time (PDT) Temp. Dew Point Humidity Pressure Visibility Wind Dir Wind Speed Gust Speed Precip Events Conditions
12:53 AM 46.9 °F 44.1 °F 90% 30.14 in 10.0 mi South 12.7 mph - N/A   Overcast
1:53 AM 48.0 °F 45.0 °F 89% 30.12 in 10.0 mi South 11.5 mph - N/A   Overcast
2:53 AM 48.9 °F 46.0 °F 90% 30.12 in 10.0 mi South 8.1 mph - N/A   Overcast
3:53 AM 48.9 °F 46.0 °F 90% 30.10 in 10.0 mi South 12.7 mph - 0.00 in   Overcast
4:53 AM 50.0 °F 46.0 °F 86% 30.08 in 10.0 mi South 19.6 mph 28.8 mph N/A   Overcast
5:45 AM 50.0 °F 46.4 °F 87% 30.05 in 10.0 mi South 21.9 mph 27.6 mph N/A   Overcast
5:53 AM 50.0 °F 46.0 °F 86% 30.05 in 10.0 mi South 21.9 mph 31.1 mph N/A   Overcast
6:53 AM 50.0 °F 45.0 °F 83% 30.03 in 10.0 mi South 26.5 mph 38.0 mph 0.01 in   Mostly Cloudy
7:53 AM 50.0 °F 45.0 °F 83% 30.04 in 10.0 mi South 21.9 mph 33.4 mph N/A   Overcast
8:22 AM 50.0 °F 44.6 °F 82% 30.03 in 10.0 mi South 26.5 mph 36.8 mph N/A   Overcast
8:53 AM 50.0 °F 45.0 °F 83% 30.04 in 10.0 mi South 24.2 mph 39.1 mph N/A   Mostly Cloudy
9:53 AM 51.1 °F 45.0 °F 80% 30.04 in 10.0 mi South 29.9 mph 39.1 mph N/A   Overcast
10:53 AM 52.0 °F 44.1 °F 74% 30.05 in 10.0 mi South 18.4 mph 31.1 mph N/A   Overcast
10:57 AM 51.8 °F 44.6 °F 76% 30.04 in 10.0 mi South 19.6 mph 31.1 mph N/A   Overcast
11:53 AM 53.1 °F 44.1 °F 71% 30.05 in 10.0 mi South 27.6 mph 35.7 mph N/A   Overcast
12:53 PM 54.0 °F 45.0 °F 72% 30.06 in 10.0 mi South 25.3 mph 43.7 mph N/A   Overcast
1:14 PM 53.6 °F 44.6 °F 72% 30.06 in 10.0 mi South 26.5 mph 40.3 mph N/A   Overcast
1:29 PM 53.6 °F 44.6 °F 72% 30.05 in 10.0 mi South 28.8 mph 40.3 mph N/A   Overcast
1:53 PM 53.1 °F 45.0 °F 74% 30.07 in 10.0 mi South 27.6 mph 38.0 mph N/A   Overcast
2:24 PM 53.6 °F 44.6 °F 72% 30.06 in 10.0 mi South 27.6 mph 39.1 mph N/A   Overcast
2:53 PM 53.1 °F 46.0 °F 77% 30.06 in 10.0 mi South 19.6 mph 28.8 mph N/A   Overcast
3:27 PM 51.8 °F 46.4 °F 82% 30.06 in 10.0 mi South 19.6 mph 32.2 mph 0.00 in Rain Light Rain
3:53 PM 51.1 °F 48.0 °F 89% 30.07 in 8.0 mi South 16.1 mph 27.6 mph 0.00 in Rain Light Rain
4:53 PM 51.1 °F 48.9 °F 92% 30.07 in 10.0 mi South 15.0 mph 23.0 mph 0.02 in Rain Light Rain
5:53 PM 51.1 °F 48.0 °F 89% 30.06 in 7.0 mi South 18.4 mph 26.5 mph 0.03 in Rain Light Rain
6:14 PM 51.8 °F 48.2 °F 88% 30.06 in 9.0 mi South 18.4 mph 25.3 mph 0.02 in Rain Light Rain
6:53 PM 51.1 °F 48.0 °F 89% 30.05 in 10.0 mi South 24.2 mph 31.1 mph 0.03 in   Overcast
7:53 PM 50.0 °F 48.0 °F 93% 30.08 in 10.0 mi South 21.9 mph 29.9 mph 0.00 in Rain Light Rain
8:53 PM 50.0 °F 46.9 °F 89% 30.10 in 10.0 mi South 23.0 mph 29.9 mph 0.02 in   Overcast
9:06 PM 50.0 °F 46.4 °F 87% 30.09 in 10.0 mi South 19.6 mph 31.1 mph 0.00 in Rain Light Rain
9:38 PM 50.0 °F 48.2 °F 94% 30.08 in 10.0 mi South 21.9 mph 29.9 mph 0.01 in Rain Light Rain
9:53 PM 50.0 °F 46.9 °F 89% 30.10 in 10.0 mi South 24.2 mph 31.1 mph 0.01 in   Overcast
10:51 PM 50.0 °F 46.4 °F 87% 30.09 in 10.0 mi South 15.0 mph 23.0 mph 0.00 in   Overcast
10:53 PM 50.0 °F 46.9 °F 89% 30.09 in 10.0 mi South 16.1 mph 24.2 mph 0.00 in   Overcast
11:53 PM 50.0 °F 46.4 °F 87% 30.07 in 10.0 mi South 19.6 mph 33.4 mph N/A   Overcast